timestamp,wind_dir_avg,wind_spd_max_dir,wind_spd_avg,wind_spd_gust,battery_voltage,lat,long
2018-01-21 00:00:00+00:00,230.0,234.0,15.5,18.38,,47.59359,-54.27349
2018-01-21 00:10:00+00:00,236.0,239.0,18.2,21.09,,47.59359,-54.27349
2018-01-21 00:20:00+00:00,237.0,234.0,15.6,19.01,,47.59359,-54.27349
2018-01-21 00:30:00+00:00,243.0,255.0,15.91,20.29,,47.59359,-54.27349
2018-01-21 00:40:00+00:00,245.0,258.0,14.85,16.86,,47.59359,-54.27349
2018-01-21 00:50:00+00:00,244.0,249.0,12.76,16.85,,47.59359,-54.27349
2018-01-21 01:00:00+00:00,246.0,253.0,11.77,15.0,,47.59359,-54.27349
2018-01-21 01:10:00+00:00,246.0,250.0,11.2,13.81,,47.59359,-54.27349
2018-01-21 01:20:00+00:00,248.0,255.0,10.37,12.26,,47.59359,-54.27349
2018-01-21 01:30:00+00:00,247.0,251.0,10.24,11.99,,47.59359,-54.27349
2018-01-21 01:40:00+00:00,243.0,243.0,10.34,12.57,,47.59359,-54.27349
2018-01-21 01:50:00+00:00,245.0,245.0,9.1,11.93,,47.59359,-54.27349
2018-01-21 02:00:00+00:00,246.0,244.0,9.98,11.77,,47.59359,-54.27349
2018-01-21 02:10:00+00:00,251.0,248.0,10.18,11.83,,47.59359,-54.27349
2018-01-21 02:20:00+00:00,255.0,256.0,11.54,12.75,,47.59359,-54.27349
2018-01-21 02:30:00+00:00,255.0,257.0,11.07,12.65,,47.59359,-54.27349
2018-01-21 02:40:00+00:00,259.0,262.0,10.11,11.09,,47.59359,-54.27349
2018-01-21 02:50:00+00:00,255.0,252.0,10.51,11.88,,47.59359,-54.27349
2018-01-21 03:00:00+00:00,261.0,261.0,12.72,15.74,,47.59359,-54.27349
2018-01-21 03:10:00+00:00,269.0,270.0,11.09,12.23,,47.59359,-54.27349
2018-01-21 03:20:00+00:00,269.0,272.0,11.63,13.11,,47.59359,-54.27349
2018-01-21 03:30:00+00:00,268.0,274.0,11.49,13.71,,47.59359,-54.27349
2018-01-21 03:40:00+00:00,264.0,271.0,9.97,11.62,,47.59359,-54.27349
2018-01-21 03:50:00+00:00,278.0,283.0,10.35,12.96,,47.59359,-54.27349
2018-01-21 04:00:00+00:00,267.0,262.0,9.8,11.75,,47.59359,-54.27349
2018-01-21 04:10:00+00:00,279.0,275.0,11.36,13.26,,47.59359,-54.27349
2018-01-21 04:20:00+00:00,270.0,271.0,10.37,12.09,,47.59359,-54.27349
2018-01-21 04:30:00+00:00,279.0,280.0,11.75,13.63,,47.59359,-54.27349
2018-01-21 04:40:00+00:00,271.0,275.0,11.72,13.74,,47.59359,-54.27349
2018-01-21 04:50:00+00:00,282.0,283.0,9.34,10.5,,47.59359,-54.27349
2018-01-21 05:00:00+00:00,284.0,290.0,10.88,12.79,,47.59359,-54.27349
2018-01-21 05:10:00+00:00,281.0,284.0,9.36,11.05,,47.59359,-54.27349
2018-01-21 05:20:00+00:00,281.0,276.0,9.9,12.48,,47.59359,-54.27349
2018-01-21 05:30:00+00:00,286.0,287.0,12.02,14.01,,47.59359,-54.27349
2018-01-21 05:40:00+00:00,284.0,295.0,10.49,12.92,,47.59359,-54.27349
2018-01-21 05:50:00+00:00,276.0,271.0,11.1,12.47,,47.59359,-54.27349
2018-01-21 06:00:00+00:00,278.0,289.0,9.17,10.9,,47.59359,-54.27349
2018-01-21 06:10:00+00:00,273.0,274.0,10.88,12.88,,47.59359,-54.27349
2018-01-21 06:20:00+00:00,267.0,275.0,10.66,13.39,,47.59359,-54.27349
2018-01-21 06:30:00+00:00,265.0,269.0,11.2,14.1,,47.59359,-54.27349
2018-01-21 06:40:00+00:00,262.0,263.0,10.18,11.1,,47.59359,-54.27349
2018-01-21 06:50:00+00:00,258.0,258.0,10.46,12.12,,47.59359,-54.27349
2018-01-21 07:00:00+00:00,260.0,259.0,9.1,10.7,,47.59359,-54.27349
2018-01-21 07:10:00+00:00,261.0,264.0,10.21,11.47,,47.59359,-54.27349
2018-01-21 07:20:00+00:00,264.0,267.0,11.91,14.06,,47.59359,-54.27349
2018-01-21 07:30:00+00:00,254.0,252.0,9.38,10.56,,47.59359,-54.27349
2018-01-21 07:40:00+00:00,258.0,259.0,10.4,11.56,,47.59359,-54.27349
2018-01-21 07:50:00+00:00,261.0,257.0,13.01,15.5,,47.59359,-54.27349
2018-01-21 08:00:00+00:00,258.0,263.0,11.38,12.99,,47.59359,-54.27349
2018-01-21 08:10:00+00:00,255.0,255.0,11.39,14.78,,47.59359,-54.27349
2018-01-21 08:20:00+00:00,263.0,269.0,11.7,13.55,,47.59359,-54.27349
2018-01-21 08:30:00+00:00,257.0,258.0,10.64,12.61,,47.59359,-54.27349
2018-01-21 08:40:00+00:00,265.0,261.0,10.68,12.98,,47.59359,-54.27349
2018-01-21 08:50:00+00:00,270.0,263.0,10.47,12.03,,47.59359,-54.27349
2018-01-21 09:00:00+00:00,279.0,278.0,9.39,10.79,,47.59359,-54.27349
2018-01-21 09:10:00+00:00,271.0,269.0,8.12,10.11,,47.59359,-54.27349
2018-01-21 09:20:00+00:00,279.0,287.0,9.32,10.28,,47.59359,-54.27349
2018-01-21 09:30:00+00:00,280.0,276.0,11.37,12.55,,47.59359,-54.27349
2018-01-21 09:40:00+00:00,281.0,281.0,7.41,8.47,,47.59359,-54.27349
2018-01-21 09:50:00+00:00,263.0,269.0,8.49,9.54,,47.59359,-54.27349
2018-01-21 10:00:00+00:00,275.0,265.0,9.32,10.41,,47.59359,-54.27349
2018-01-21 10:10:00+00:00,310.0,308.0,7.33,8.78,,47.59359,-54.27349
2018-01-21 10:20:00+00:00,318.0,308.0,8.75,10.92,,47.59359,-54.27349
2018-01-21 10:30:00+00:00,311.0,316.0,8.4,10.69,,47.59359,-54.27349
2018-01-21 10:40:00+00:00,306.0,308.0,11.85,13.89,,47.59359,-54.27349
2018-01-21 10:50:00+00:00,284.0,287.0,12.58,16.26,,47.59359,-54.27349
2018-01-21 11:00:00+00:00,292.0,282.0,10.68,13.54,,47.59359,-54.27349
2018-01-21 11:10:00+00:00,290.0,291.0,12.47,15.35,,47.59359,-54.27349
2018-01-21 11:20:00+00:00,297.0,295.0,9.68,11.26,,47.59359,-54.27349
2018-01-21 11:30:00+00:00,286.0,286.0,10.09,11.72,,47.59359,-54.27349
2018-01-21 11:40:00+00:00,295.0,296.0,8.63,9.87,,47.59359,-54.27349
2018-01-21 11:50:00+00:00,290.0,290.0,11.04,13.33,,47.59359,-54.27349
2018-01-21 12:00:00+00:00,285.0,272.0,12.2,14.78,,47.59359,-54.27349
2018-01-21 12:10:00+00:00,287.0,294.0,12.31,14.56,,47.59359,-54.27349
2018-01-21 12:20:00+00:00,303.0,301.0,9.42,11.54,,47.59359,-54.27349
2018-01-21 12:30:00+00:00,305.0,308.0,9.81,11.06,,47.59359,-54.27349
2018-01-21 12:40:00+00:00,307.0,300.0,9.18,10.62,,47.59359,-54.27349
2018-01-21 12:50:00+00:00,305.0,302.0,7.75,9.48,,47.59359,-54.27349
2018-01-21 13:00:00+00:00,286.0,293.0,10.35,11.69,,47.59359,-54.27349
2018-01-21 13:10:00+00:00,302.0,287.0,10.23,13.32,,47.59359,-54.27349
2018-01-21 13:20:00+00:00,315.0,319.0,12.61,16.55,,47.59359,-54.27349
2018-01-21 13:30:00+00:00,302.0,305.0,10.47,13.59,,47.59359,-54.27349
2018-01-21 13:40:00+00:00,288.0,289.0,13.79,16.57,,47.59359,-54.27349
2018-01-21 13:50:00+00:00,296.0,293.0,10.24,12.24,,47.59359,-54.27349
2018-01-21 14:00:00+00:00,298.0,298.0,10.79,12.37,,47.59359,-54.27349
2018-01-21 14:10:00+00:00,289.0,294.0,11.82,14.05,,47.59359,-54.27349
2018-01-21 14:20:00+00:00,299.0,297.0,11.79,13.51,,47.59359,-54.27349
2018-01-21 14:30:00+00:00,289.0,289.0,14.56,16.33,,47.59359,-54.27349
2018-01-21 14:40:00+00:00,304.0,302.0,13.67,15.4,,47.59359,-54.27349
2018-01-21 14:50:00+00:00,291.0,300.0,11.93,13.37,,47.59359,-54.27349
2018-01-21 15:00:00+00:00,291.0,290.0,14.65,16.9,,47.59359,-54.27349
2018-01-21 15:10:00+00:00,313.0,307.0,11.32,13.1,,47.59359,-54.27349
2018-01-21 15:20:00+00:00,303.0,310.0,8.91,10.47,,47.59359,-54.27349
2018-01-21 15:30:00+00:00,281.0,275.0,12.74,15.18,,47.59359,-54.27349
2018-01-21 15:40:00+00:00,291.0,294.0,12.24,14.64,,47.59359,-54.27349
2018-01-21 15:50:00+00:00,288.0,284.0,14.94,17.23,,47.59359,-54.27349
2018-01-21 16:00:00+00:00,296.0,298.0,13.74,16.62,,47.59359,-54.27349
2018-01-21 16:10:00+00:00,302.0,302.0,13.78,15.95,,47.59359,-54.27349
2018-01-21 16:20:00+00:00,295.0,297.0,13.53,16.09,,47.59359,-54.27349
2018-01-21 16:30:00+00:00,297.0,299.0,11.91,14.16,,47.59359,-54.27349
2018-01-21 16:40:00+00:00,281.0,279.0,13.46,16.77,,47.59359,-54.27349
2018-01-21 16:50:00+00:00,277.0,276.0,13.25,14.74,,47.59359,-54.27349
2018-01-21 17:00:00+00:00,285.0,285.0,12.92,15.11,,47.59359,-54.27349
2018-01-21 17:10:00+00:00,275.0,278.0,11.44,14.05,,47.59359,-54.27349
2018-01-21 17:20:00+00:00,286.0,284.0,13.16,15.2,,47.59359,-54.27349
2018-01-21 17:30:00+00:00,290.0,292.0,12.98,14.41,,47.59359,-54.27349
2018-01-21 17:40:00+00:00,280.0,276.0,12.63,15.78,,47.59359,-54.27349
2018-01-21 17:50:00+00:00,283.0,278.0,11.38,13.79,,47.59359,-54.27349
2018-01-21 18:00:00+00:00,280.0,276.0,11.97,14.66,,47.59359,-54.27349
2018-01-21 18:10:00+00:00,297.0,300.0,11.18,12.93,,47.59359,-54.27349
2018-01-21 18:20:00+00:00,295.0,298.0,12.91,14.44,,47.59359,-54.27349
2018-01-21 18:30:00+00:00,293.0,298.0,10.0,11.3,,47.59359,-54.27349
2018-01-21 18:40:00+00:00,280.0,283.0,7.99,9.17,,47.59359,-54.27349
2018-01-21 18:50:00+00:00,273.0,274.0,9.96,11.93,,47.59359,-54.27349
2018-01-21 19:00:00+00:00,290.0,290.0,11.18,13.2,,47.59359,-54.27349
2018-01-21 19:10:00+00:00,296.0,298.0,9.4,11.03,,47.59359,-54.27349
2018-01-21 19:20:00+00:00,283.0,282.0,10.96,12.93,,47.59359,-54.27349
2018-01-21 19:30:00+00:00,303.0,307.0,11.9,13.45,,47.59359,-54.27349
2018-01-21 19:40:00+00:00,281.0,276.0,9.58,11.15,,47.59359,-54.27349
2018-01-21 19:50:00+00:00,289.0,287.0,10.99,12.3,,47.59359,-54.27349
2018-01-21 20:00:00+00:00,289.0,299.0,9.47,11.39,,47.59359,-54.27349
2018-01-21 20:10:00+00:00,301.0,305.0,9.91,11.08,,47.59359,-54.27349
2018-01-21 20:20:00+00:00,300.0,299.0,8.87,10.86,,47.59359,-54.27349
2018-01-21 20:30:00+00:00,294.0,293.0,9.7,11.01,,47.59359,-54.27349
2018-01-21 20:40:00+00:00,289.0,292.0,9.53,10.7,,47.59359,-54.27349
2018-01-21 20:50:00+00:00,283.0,283.0,8.6,9.98,,47.59359,-54.27349
2018-01-21 21:00:00+00:00,290.0,294.0,6.4,7.81,,47.59359,-54.27349
2018-01-21 21:10:00+00:00,271.0,273.0,7.1,8.94,,47.59359,-54.27349
2018-01-21 21:20:00+00:00,282.0,282.0,5.86,7.33,,47.59359,-54.27349
2018-01-21 21:30:00+00:00,275.0,276.0,7.4,7.99,,47.59359,-54.27349
2018-01-21 21:40:00+00:00,277.0,275.0,8.17,9.3,,47.59359,-54.27349
2018-01-21 21:50:00+00:00,271.0,272.0,8.76,10.0,,47.59359,-54.27349
2018-01-21 22:00:00+00:00,265.0,266.0,8.96,10.06,,47.59359,-54.27349
2018-01-21 22:10:00+00:00,285.0,279.0,7.42,8.73,,47.59359,-54.27349
2018-01-21 22:20:00+00:00,283.0,275.0,9.05,14.25,,47.59359,-54.27349
2018-01-21 22:30:00+00:00,303.0,306.0,9.28,10.78,,47.59359,-54.27349
2018-01-21 22:40:00+00:00,305.0,307.0,7.24,8.88,,47.59359,-54.27349
2018-01-21 22:50:00+00:00,295.0,296.0,6.12,7.32,,47.59359,-54.27349
2018-01-21 23:00:00+00:00,302.0,301.0,8.41,9.98,,47.59359,-54.27349
2018-01-21 23:10:00+00:00,304.0,306.0,7.97,9.21,,47.59359,-54.27349
2018-01-21 23:20:00+00:00,301.0,308.0,7.42,8.62,,47.59359,-54.27349
2018-01-21 23:30:00+00:00,297.0,307.0,7.3,8.78,,47.59359,-54.27349
2018-01-21 23:40:00+00:00,310.0,312.0,6.94,7.85,,47.59359,-54.27349
2018-01-21 23:50:00+00:00,289.0,299.0,7.17,9.29,,47.59359,-54.27349
